WetterOnline ( https://www.wetteronline.ch )

Wetter aktuell Harzgerode

Aktuelles Wetter: Harzgerode (405m)

6-stündlich | Neueste Meldungen
Ortszeit Temperatur Wetter
Mo, 20.05. 2:00 9.0° C wolkig
So, 19.05. 20:00 19.4° C leicht bewölkt
So, 19.05. 14:00 19.5° C leicht bewölkt
So, 19.05. 8:00 14.0° C leicht bewölkt
So, 19.05. 2:00 6.8° C wolkig
Sa, 18.05. 20:00 16.7° C wolkenlos
Sa, 18.05. 14:00 16.9° C wolkenlos
Sa, 18.05. 8:00 10.4° C fast wolkenlos
Ortszeit Temperatur Wetter
Mo, 20.05. 2:00 9.0° C wolkig
Mo, 20.05. 1:40 9.0° C leicht bewölkt
Mo, 20.05. 1:30 9.2° C wolkenlos
Mo, 20.05. 1:20 9.2° C wolkenlos
Mo, 20.05. 1:10 9.3° C wolkenlos
Mo, 20.05. 1:00 10.2° C wolkenlos
Mo, 20.05. 0:50 10.2° C wolkenlos
Mo, 20.05. 0:30 11.1° C wolkenlos
Mo, 20.05. 0:00 12.3° C fast wolkenlos
So, 19.05. 23:30 11.6° C wolkenlos
So, 19.05. 23:00 12.8° C fast wolkenlos
Ortszeit Relative Feuchte Sichtweite
Mo, 20.05. 2:00 95% 17 km
So, 19.05. 20:00 51% 45 km
So, 19.05. 14:00 54% 30 km
So, 19.05. 8:00 74% 22 km
So, 19.05. 2:00 97% 17 km
Sa, 18.05. 20:00 59% 45 km
Sa, 18.05. 14:00 61% 30 km
Sa, 18.05. 8:00 84% 12 km
Ortszeit Relative Feuchte Sichtweite
Mo, 20.05. 2:00 95% 17 km
Mo, 20.05. 1:40 94% -
Mo, 20.05. 1:30 93% 15 km
Mo, 20.05. 1:20 93% -
Mo, 20.05. 1:10 92% -
Mo, 20.05. 1:00 90% 20 km
Mo, 20.05. 0:50 90% -
Mo, 20.05. 0:30 87% 29 km
Mo, 20.05. 0:00 81% 30 km
So, 19.05. 23:30 84% 35 km
So, 19.05. 23:00 81% 28 km
Ortszeit Niederschlagsmenge Niederschlagsart
Mo, 20.05. 2:00 0.0 l/m2 in 6 Std. -
So, 19.05. 20:00 0.0 l/m2 in 12 Std. -
So, 19.05. 14:00 0.0 l/m2 in 6 Std. -
So, 19.05. 8:00 0.0 l/m2 in 12 Std. -
So, 19.05. 2:00 0.0 l/m2 in 6 Std. -
Sa, 18.05. 20:00 0.0 l/m2 in 12 Std. -
Sa, 18.05. 14:00 0.0 l/m2 in 6 Std. -
Sa, 18.05. 8:00 0.0 l/m2 in 12 Std. -
Ortszeit Niederschlagsmenge Niederschlagsart
Mo, 20.05. 2:00 0.0 l/m2 in 1 Std. -
Mo, 20.05. 1:40 keine Meldung -
Mo, 20.05. 1:30 0.0 l/m2 in 1 Std. -
Mo, 20.05. 1:20 keine Meldung -
Mo, 20.05. 1:10 keine Meldung -
Mo, 20.05. 1:00 0.0 l/m2 in 1 Std. -
Mo, 20.05. 0:50 keine Meldung -
Mo, 20.05. 0:30 0.0 l/m2 in 1 Std. -
Mo, 20.05. 0:00 0.0 l/m2 in 1 Std. -
So, 19.05. 23:30 0.0 l/m2 in 1 Std. -
So, 19.05. 23:00 0.0 l/m2 in 1 Std. -
Ortszeit Stärke Spitze Richtung
km/h Bft. km/h Grad Sektor
Mo, 20.05. 2:00 4 1 11 290° W
So, 19.05. 20:00 6 1 37 110° O
So, 19.05. 14:00 11 2 25 90° O
So, 19.05. 8:00 7 2 11 50° NO
So, 19.05. 2:00 7 2 11 240° SW
Sa, 18.05. 20:00 11 2 29 90° O
Sa, 18.05. 14:00 11 2 25 120° SO
Sa, 18.05. 8:00 2 1 11 80° O
Ortszeit Stärke Spitze Richtung
km/h Bft. km/h Grad Sektor
Mo, 20.05. 2:00 4 1 7 290° W
Mo, 20.05. 1:40 4 1 - 300° NW
Mo, 20.05. 1:30 4 1 7 270° W
Mo, 20.05. 1:20 4 1 - 270° W
Mo, 20.05. 1:10 4 1 - 310° NW
Mo, 20.05. 1:00 6 1 11 10° N
Mo, 20.05. 0:50 6 1 - 10° N
Mo, 20.05. 0:30 7 2 11 10° N
Mo, 20.05. 0:00 7 2 9 350° N
So, 19.05. 23:30 4 1 11 340° N
So, 19.05. 23:00 4 1 7 280° W
Ortszeit Untergrenze Bedeckung Gattung
total tief tief mittel hoch
Mo, 20.05. 2:00 8100 m 7/8 0/8 - - -
So, 19.05. 20:00 4500 m 3/8 3/8 - - -
So, 19.05. 14:00 1200 m 8/8 1/8 - - -
So, 19.05. 8:00 4500 m 3/8 3/8 - - -
So, 19.05. 2:00 8100 m 8/8 0/8 - - -
Sa, 18.05. 20:00 - 0/8 0/8 - - -
Sa, 18.05. 14:00 960 m 0/8 0/8 - - -
Sa, 18.05. 8:00 9000 m 1/8 0/8 - - -
Ortszeit Bedeckungsgrad in Achtel und Wolkenuntergrenze
Mo, 20.05. 2:00 7(8100m) 7(8700m)
Mo, 20.05. 1:40 6(8400m)
Mo, 20.05. 1:30 4(8400m)
Mo, 20.05. 1:20 keine Wolken
Mo, 20.05. 1:10 keine Wolken
Mo, 20.05. 1:00 keine Wolken
Mo, 20.05. 0:50 keine Wolken
Mo, 20.05. 0:30 keine Wolken
Mo, 20.05. 0:00 1(6900m)
So, 19.05. 23:30 2(6900m)
So, 19.05. 23:00 2(8100m)
Ortszeit Luftdruck NN (hPa) Tendenz (hPa in 3 Std.)
Mo, 20.05. 2:00 1005 - 0,3
So, 19.05. 20:00 1003 - 0,6
So, 19.05. 14:00 1004 - 0,3
So, 19.05. 8:00 1006 + 0,1
So, 19.05. 2:00 1008 - 0,8
Sa, 18.05. 20:00 1006 + 0,1
Sa, 18.05. 14:00 1006 + 0,1
Sa, 18.05. 8:00 1008 - 0,3
Ortszeit Luftdruck NN (hPa) Tendenz (hPa in 3 Std.)
Mo, 20.05. 2:00 1005 - 0,3
Mo, 20.05. 1:40 1005 keine Meldung
Mo, 20.05. 1:30 1005 - 0,2
Mo, 20.05. 1:20 1005 keine Meldung
Mo, 20.05. 1:10 1005 keine Meldung
Mo, 20.05. 1:00 1005 - 0,1
Mo, 20.05. 0:50 1005 keine Meldung
Mo, 20.05. 0:30 1005 + 0,2
Mo, 20.05. 0:00 1005 + 0,2
So, 19.05. 23:30 1005 + 0,3
So, 19.05. 23:00 1004 + 0,4
Ortszeit Schneehöhe (cm)
Mo, 20.05. 2:00 -
So, 19.05. 20:00 -
So, 19.05. 14:00 -
So, 19.05. 8:00 -
So, 19.05. 2:00 -
Sa, 18.05. 20:00 -
Sa, 18.05. 14:00 -
Sa, 18.05. 8:00 -
Ortszeit Schneehöhe (cm)
Mo, 20.05. 2:00 -
Mo, 20.05. 1:40 -
Mo, 20.05. 1:30 -
Mo, 20.05. 1:20 -
Mo, 20.05. 1:10 -
Mo, 20.05. 1:00 -
Mo, 20.05. 0:50 -
Mo, 20.05. 0:30 -
Mo, 20.05. 0:00 -
So, 19.05. 23:30 -
So, 19.05. 23:00 -
Link zu dieser Seite / Seite empfehlen

Das Wetter in ...